Location: Beuerbach
(48.1459°N, 10.9174°E)
Time: 21:43:41
(UTC+00:00)

ALOS - Pass Details

Date: 23 May 2024
Orbit: 673 x 676 km, 98.0° (Epoch: 14 June)

Event Time Altitude Azimuth Distance (km) Brightness Sun altitude
Rises 01:21:24 0° 22° (NNE) 3,038 7.4 -15.5°
Reaches altitude 10° 01:23:53 10° 33° (NNE) 2,118 6.2 -15.2°
Maximum altitude 01:27:59 31° 95° (E) 1,191 3.8 -14.9°
Drops below altitude 10° 01:32:03 10° 157° (SSE) 2,101 4.5 -14.5°
Enters shadow 01:32:34 - 161° (SSE) 2,289 4.6 -14.5°
